JLY7258 SBBR-SBMO

Flight info

Callsign JLY7258
Flight time 1h 57m
Altitude 33000
Route UGTAK UZ19 LOLIP DCT TEMEV UZ23 ANDIG DCT MCE
Aircraft A21N/M-SDE2E3FGHIRWXY/LB1

Departure

Time 2026-04-27 17:56
Airport Presidente Juscelino Kubitschek International Airport (SBBR)

Arrival

Time 2026-04-27 19:53
Airport Zumbi dos Palmares International Airport (SBMO)
Time Latitude Longitude Altitude Speed Heading
2026-04-27 17:45 -15.86706 -47.91892 3477 ft 0 kts 176°
2026-04-27 17:48 -15.86694 -47.91893 3474 ft 4 kts 178°
2026-04-27 17:48 -15.86667 -47.91892 3475 ft 4 kts 186°
2026-04-27 17:48 -15.86641 -47.91887 3473 ft 4 kts 200°
2026-04-27 17:49 -15.86620 -47.91874 3472 ft 4 kts 237°
2026-04-27 17:49 -15.86615 -47.91860 3473 ft 1 kts 266°
2026-04-27 17:49 -15.86615 -47.91858 3473 ft 0 kts 266°
2026-04-27 17:51 -15.86615 -47.91859 3473 ft 1 kts 266°
2026-04-27 17:52 -15.86616 -47.91872 3472 ft 3 kts 266°
2026-04-27 17:52 -15.86617 -47.91899 3474 ft 5 kts 266°
2026-04-27 17:52 -15.86620 -47.91943 3477 ft 7 kts 266°
2026-04-27 17:52 -15.86623 -47.91982 3477 ft 9 kts 266°
2026-04-27 17:53 -15.86629 -47.92081 3477 ft 12 kts 266°
2026-04-27 17:53 -15.86630 -47.92174 3477 ft 14 kts 288°
2026-04-27 17:53 -15.86586 -47.92271 3475 ft 16 kts 300°
2026-04-27 17:53 -15.86524 -47.92370 3474 ft 17 kts 272°
2026-04-27 17:54 -15.86532 -47.92498 3472 ft 18 kts 265°
2026-04-27 17:54 -15.86543 -47.92629 3470 ft 19 kts 265°
2026-04-27 17:54 -15.86538 -47.92761 3467 ft 20 kts 333°
2026-04-27 17:54 -15.86417 -47.92763 3466 ft 17 kts 18°
2026-04-27 17:55 -15.86352 -47.92681 3466 ft 10 kts 84°
2026-04-27 17:55 -15.86351 -47.92657 3466 ft 3 kts 87°
2026-04-27 17:55 -15.86330 -47.92339 3471 ft 83 kts 86°
2026-04-27 17:55 -15.86276 -47.91497 3469 ft 146 kts 86°
2026-04-27 17:56 -15.86200 -47.90316 3561 ft 177 kts 86°
2026-04-27 17:56 -15.86121 -47.89024 4143 ft 180 kts 86°
2026-04-27 17:56 -15.86041 -47.87650 4446 ft 203 kts 87°
2026-04-27 17:56 -15.85949 -47.86118 4798 ft 221 kts 87°
2026-04-27 17:57 -15.85845 -47.84467 5203 ft 240 kts 86°
2026-04-27 17:57 -15.85714 -47.82651 5488 ft 263 kts 82°
2026-04-27 17:57 -15.85065 -47.80829 5791 ft 276 kts 60°
2026-04-27 17:57 -15.84040 -47.79119 6458 ft 281 kts 58°
2026-04-27 17:58 -15.82981 -47.77404 7139 ft 283 kts 58°
2026-04-27 17:58 -15.81920 -47.75664 7830 ft 286 kts 58°
2026-04-27 17:58 -15.80860 -47.73902 8527 ft 290 kts 58°
2026-04-27 17:58 -15.79795 -47.72116 9228 ft 293 kts 58°
2026-04-27 17:59 -15.78722 -47.70301 9922 ft 296 kts 58°
2026-04-27 17:59 -15.77630 -47.68444 10347 ft 310 kts 58°
2026-04-27 17:59 -15.76486 -47.66499 10619 ft 328 kts 58°
2026-04-27 17:59 -15.75261 -47.64421 10868 ft 347 kts 58°
2026-04-27 18:00 -15.73965 -47.62229 11104 ft 364 kts 58°
2026-04-27 18:00 -15.72617 -47.59948 11407 ft 377 kts 58°
2026-04-27 18:00 -15.71232 -47.57605 11932 ft 382 kts 58°
2026-04-27 18:00 -15.69837 -47.55245 12523 ft 385 kts 59°
2026-04-27 18:01 -15.68437 -47.52869 13111 ft 388 kts 59°
2026-04-27 18:01 -15.67024 -47.50470 13674 ft 390 kts 59°
2026-04-27 18:01 -15.65599 -47.48060 14167 ft 393 kts 59°
2026-04-27 18:01 -15.64169 -47.45637 14641 ft 395 kts 59°
2026-04-27 18:02 -15.62733 -47.43198 15108 ft 397 kts 59°
2026-04-27 18:02 -15.61284 -47.40744 15579 ft 399 kts 58°
2026-04-27 18:02 -15.59835 -47.38290 15997 ft 402 kts 58°
2026-04-27 18:02 -15.58370 -47.35803 16406 ft 405 kts 59°
2026-04-27 18:03 -15.56898 -47.33310 16796 ft 407 kts 58°
2026-04-27 18:03 -15.55412 -47.30803 17201 ft 409 kts 58°
2026-04-27 18:03 -15.53915 -47.28282 17597 ft 411 kts 58°
2026-04-27 18:03 -15.52415 -47.25752 17984 ft 413 kts 58°
2026-04-27 18:04 -15.50906 -47.23208 18341 ft 415 kts 58°
2026-04-27 18:04 -15.49389 -47.20650 18675 ft 417 kts 58°
2026-04-27 18:04 -15.47869 -47.18085 19006 ft 419 kts 58°
2026-04-27 18:04 -15.46343 -47.15508 19339 ft 421 kts 58°
2026-04-27 18:05 -15.44807 -47.12918 19673 ft 423 kts 58°
2026-04-27 18:05 -15.43266 -47.10315 20008 ft 424 kts 58°
2026-04-27 18:05 -15.41717 -47.07706 20353 ft 426 kts 58°
2026-04-27 18:05 -15.40158 -47.05086 20692 ft 428 kts 58°
2026-04-27 18:06 -15.38588 -47.02445 21042 ft 430 kts 58°
2026-04-27 18:06 -15.37021 -46.99798 21390 ft 432 kts 58°
2026-04-27 18:06 -15.35438 -46.97137 21750 ft 435 kts 58°
2026-04-27 18:06 -15.33846 -46.94468 22115 ft 437 kts 58°
2026-04-27 18:07 -15.32788 -46.92689 22361 ft 438 kts 58°
2026-04-27 18:07 -15.31185 -46.89996 22724 ft 441 kts 58°
2026-04-27 18:07 -15.29571 -46.87289 23064 ft 443 kts 58°
2026-04-27 18:07 -15.27950 -46.84565 23393 ft 445 kts 58°
2026-04-27 18:08 -15.26325 -46.81832 23683 ft 447 kts 58°
2026-04-27 18:08 -15.24687 -46.79085 23940 ft 449 kts 58°
2026-04-27 18:08 -15.23045 -46.76325 24195 ft 451 kts 58°
2026-04-27 18:08 -15.21395 -46.73560 24461 ft 453 kts 58°
2026-04-27 18:09 -15.19735 -46.70776 24723 ft 454 kts 58°
2026-04-27 18:09 -15.18073 -46.67988 24985 ft 456 kts 58°
2026-04-27 18:09 -15.16400 -46.65189 25244 ft 458 kts 58°
2026-04-27 18:09 -15.14726 -46.62384 25497 ft 460 kts 58°
2026-04-27 18:10 -15.13043 -46.59560 25753 ft 461 kts 58°
2026-04-27 18:10 -15.11356 -46.56741 26003 ft 463 kts 58°
2026-04-27 18:10 -15.09652 -46.53896 26252 ft 465 kts 57°
2026-04-27 18:10 -15.07973 -46.51080 26485 ft 467 kts 58°
2026-04-27 18:11 -15.06240 -46.48182 26729 ft 468 kts 57°
2026-04-27 18:11 -15.04549 -46.45358 26965 ft 470 kts 57°
2026-04-27 18:11 -15.02828 -46.42476 27232 ft 470 kts 57°
2026-04-27 18:11 -15.01105 -46.39606 27539 ft 469 kts 57°
2026-04-27 18:12 -14.99386 -46.36738 27835 ft 469 kts 57°
2026-04-27 18:12 -14.97671 -46.33875 28135 ft 468 kts 57°
2026-04-27 18:12 -14.95956 -46.31019 28438 ft 467 kts 57°
2026-04-27 18:12 -14.94239 -46.28166 28733 ft 467 kts 57°
2026-04-27 18:13 -14.92529 -46.25317 29030 ft 466 kts 57°
2026-04-27 18:13 -14.90907 -46.22417 29321 ft 467 kts 63°
2026-04-27 18:13 -14.89715 -46.19297 29613 ft 468 kts 70°
2026-04-27 18:13 -14.88733 -46.16086 29910 ft 468 kts 71°
2026-04-27 18:14 -14.87782 -46.12875 30190 ft 467 kts 71°
2026-04-27 18:14 -14.86825 -46.09673 30437 ft 466 kts 71°
2026-04-27 18:14 -14.85854 -46.06475 30676 ft 466 kts 71°
2026-04-27 18:14 -14.84878 -46.03282 30916 ft 466 kts 71°
2026-04-27 18:15 -14.83901 -46.00092 31168 ft 466 kts 71°
2026-04-27 18:15 -14.82923 -45.96904 31414 ft 465 kts 71°
2026-04-27 18:15 -14.81944 -45.93709 31660 ft 465 kts 71°
2026-04-27 18:15 -14.80972 -45.90527 31898 ft 465 kts 71°
2026-04-27 18:16 -14.79997 -45.87344 32132 ft 465 kts 71°
2026-04-27 18:16 -14.79013 -45.84159 32368 ft 465 kts 70°
2026-04-27 18:16 -14.78032 -45.80976 32595 ft 464 kts 71°
2026-04-27 18:16 -14.77056 -45.77800 32825 ft 464 kts 71°
2026-04-27 18:17 -14.76078 -45.74618 32976 ft 465 kts 71°
2026-04-27 18:17 -14.75114 -45.71476 32988 ft 464 kts 71°
2026-04-27 18:17 -14.73152 -45.65122 32960 ft 464 kts 71°
2026-04-27 18:18 -14.71190 -45.58768 32948 ft 464 kts 70°
2026-04-27 18:18 -14.69230 -45.52420 32944 ft 464 kts 70°
2026-04-27 18:19 -14.67271 -45.46066 32946 ft 464 kts 71°
2026-04-27 18:19 -14.65307 -45.39720 32947 ft 464 kts 71°
2026-04-27 18:20 -14.63346 -45.33371 32941 ft 464 kts 70°
2026-04-27 18:20 -14.61381 -45.27028 32941 ft 464 kts 71°
2026-04-27 18:21 -14.59413 -45.20688 32943 ft 463 kts 70°
2026-04-27 18:21 -14.57443 -45.14352 32944 ft 463 kts 71°
2026-04-27 18:22 -14.55482 -45.08023 32940 ft 463 kts 71°
2026-04-27 18:22 -14.53519 -45.01693 32940 ft 463 kts 70°
2026-04-27 18:23 -14.51546 -44.95364 32945 ft 463 kts 70°
2026-04-27 18:23 -14.49572 -44.89032 32941 ft 463 kts 70°
2026-04-27 18:24 -14.47595 -44.82715 32945 ft 463 kts 70°
2026-04-27 18:24 -14.45611 -44.76394 32945 ft 462 kts 70°
2026-04-27 18:25 -14.43648 -44.70121 32940 ft 462 kts 70°
2026-04-27 18:25 -14.41670 -44.63810 32941 ft 462 kts 70°
2026-04-27 18:26 -14.39689 -44.57503 32941 ft 462 kts 70°
2026-04-27 18:26 -14.37706 -44.51198 32939 ft 461 kts 71°
2026-04-27 18:27 -14.35731 -44.44905 32941 ft 462 kts 71°
2026-04-27 18:27 -14.33746 -44.38597 32940 ft 462 kts 71°
2026-04-27 18:28 -14.31767 -44.32301 32937 ft 462 kts 71°
2026-04-27 18:28 -14.29776 -44.26003 32938 ft 462 kts 70°
2026-04-27 18:29 -14.27780 -44.19708 32934 ft 462 kts 70°
2026-04-27 18:29 -14.25794 -44.13407 32932 ft 462 kts 71°
2026-04-27 18:30 -14.23809 -44.07117 32936 ft 462 kts 71°
2026-04-27 18:30 -14.21814 -44.00834 32935 ft 461 kts 71°
2026-04-27 18:31 -14.19826 -43.94546 32935 ft 461 kts 71°
2026-04-27 18:31 -14.17837 -43.88270 32933 ft 461 kts 70°
2026-04-27 18:32 -14.15842 -43.81980 32933 ft 462 kts 71°
2026-04-27 18:32 -14.13841 -43.75689 32932 ft 462 kts 71°
2026-04-27 18:33 -14.11841 -43.69390 32929 ft 463 kts 71°
2026-04-27 18:33 -14.09848 -43.63091 32925 ft 463 kts 71°
2026-04-27 18:34 -14.07846 -43.56794 32925 ft 461 kts 71°
2026-04-27 18:34 -14.05915 -43.50769 32925 ft 460 kts 71°
2026-04-27 18:35 -14.03897 -43.44460 32926 ft 468 kts 71°
2026-04-27 18:35 -14.01844 -43.38044 32927 ft 473 kts 71°
2026-04-27 18:36 -13.99788 -43.31606 32929 ft 473 kts 71°
2026-04-27 18:36 -13.97730 -43.25169 32931 ft 473 kts 71°
2026-04-27 18:37 -13.95670 -43.18738 32934 ft 473 kts 71°
2026-04-27 18:37 -13.93607 -43.12306 32935 ft 473 kts 71°
2026-04-27 18:38 -13.91539 -43.05877 32931 ft 473 kts 71°
2026-04-27 18:38 -13.89465 -42.99443 32934 ft 473 kts 71°
2026-04-27 18:39 -13.87404 -42.93031 32947 ft 472 kts 71°
2026-04-27 18:39 -13.85349 -42.86652 32947 ft 472 kts 71°
2026-04-27 18:40 -13.83260 -42.80196 32952 ft 472 kts 71°
2026-04-27 18:40 -13.81203 -42.73816 32963 ft 472 kts 71°
2026-04-27 18:41 -13.79123 -42.67362 32973 ft 472 kts 71°
2026-04-27 18:41 -13.77057 -42.60989 32973 ft 473 kts 71°
2026-04-27 18:42 -13.75313 -42.55615 32977 ft 473 kts 71°
2026-04-27 18:42 -13.72895 -42.48150 32983 ft 472 kts 71°
2026-04-27 18:43 -13.70819 -42.41737 32980 ft 473 kts 71°
2026-04-27 18:43 -13.68734 -42.35316 32981 ft 473 kts 71°
2026-04-27 18:44 -13.66651 -42.28907 32982 ft 473 kts 71°
2026-04-27 18:44 -13.64563 -42.22493 32982 ft 473 kts 71°
2026-04-27 18:45 -13.62473 -42.16081 32986 ft 473 kts 71°
2026-04-27 18:45 -13.60375 -42.09663 32984 ft 473 kts 71°
2026-04-27 18:46 -13.58283 -42.03252 32985 ft 473 kts 71°
2026-04-27 18:46 -13.56185 -41.96842 32990 ft 473 kts 71°
2026-04-27 18:47 -13.54093 -41.90437 32987 ft 473 kts 71°
2026-04-27 18:47 -13.51998 -41.84034 32989 ft 473 kts 71°
2026-04-27 18:48 -13.49893 -41.77628 32995 ft 473 kts 71°
2026-04-27 18:48 -13.47788 -41.71227 33002 ft 472 kts 71°
2026-04-27 18:49 -13.45697 -41.64834 33004 ft 472 kts 71°
2026-04-27 18:49 -13.43598 -41.58443 33017 ft 472 kts 71°
2026-04-27 18:50 -13.41494 -41.52052 33018 ft 472 kts 71°
2026-04-27 18:50 -13.39393 -41.45676 33019 ft 472 kts 71°
2026-04-27 18:51 -13.37293 -41.39299 33021 ft 472 kts 71°
2026-04-27 18:51 -13.35190 -41.32915 33018 ft 472 kts 71°
2026-04-27 18:52 -13.33095 -41.26583 33014 ft 472 kts 71°
2026-04-27 18:53 -13.29926 -41.16980 33007 ft 471 kts 71°
2026-04-27 18:53 -13.28175 -41.11684 33006 ft 471 kts 71°
2026-04-27 18:54 -13.25721 -41.04289 32997 ft 470 kts 71°
2026-04-27 18:54 -13.23954 -40.98948 32995 ft 471 kts 71°
2026-04-27 18:55 -13.21835 -40.92580 32995 ft 471 kts 71°
2026-04-27 18:55 -13.19718 -40.86218 32991 ft 471 kts 71°
2026-04-27 18:56 -13.17610 -40.79855 32985 ft 471 kts 71°
2026-04-27 18:56 -13.15496 -40.73494 32984 ft 471 kts 71°
2026-04-27 18:57 -13.13381 -40.67130 32988 ft 472 kts 71°
2026-04-27 18:57 -13.11261 -40.60748 32988 ft 473 kts 71°
2026-04-27 18:58 -13.09138 -40.54366 32986 ft 472 kts 71°
2026-04-27 18:58 -13.07021 -40.48003 32988 ft 472 kts 71°
2026-04-27 18:59 -13.04894 -40.41633 32991 ft 472 kts 71°
2026-04-27 18:59 -13.02769 -40.35267 32990 ft 472 kts 71°
2026-04-27 19:00 -13.00632 -40.28904 32988 ft 472 kts 71°
2026-04-27 19:00 -12.98497 -40.22549 32992 ft 471 kts 71°
2026-04-27 19:01 -12.96360 -40.16215 32990 ft 471 kts 71°
2026-04-27 19:01 -12.94227 -40.09870 32993 ft 471 kts 71°
2026-04-27 19:02 -12.92093 -40.03533 32993 ft 471 kts 71°
2026-04-27 19:02 -12.89973 -39.97240 33001 ft 470 kts 71°
2026-04-27 19:03 -12.87849 -39.90921 32995 ft 470 kts 71°
2026-04-27 19:03 -12.85727 -39.84599 32999 ft 470 kts 71°
2026-04-27 19:04 -12.83565 -39.78292 33000 ft 469 kts 71°
2026-04-27 19:04 -12.81390 -39.72003 32994 ft 468 kts 71°
2026-04-27 19:05 -12.79221 -39.65725 32996 ft 468 kts 71°
2026-04-27 19:05 -12.77052 -39.59433 32993 ft 468 kts 71°
2026-04-27 19:06 -12.74878 -39.53155 32997 ft 467 kts 71°
2026-04-27 19:06 -12.72703 -39.46864 32992 ft 468 kts 71°
2026-04-27 19:07 -12.70532 -39.40577 32992 ft 468 kts 71°
2026-04-27 19:07 -12.68349 -39.34295 32995 ft 468 kts 71°
2026-04-27 19:08 -12.66174 -39.28013 32991 ft 467 kts 71°
2026-04-27 19:08 -12.64091 -39.21702 32993 ft 467 kts 72°
2026-04-27 19:09 -12.62108 -39.15360 32992 ft 467 kts 72°
2026-04-27 19:09 -12.60128 -39.09020 32992 ft 466 kts 72°
2026-04-27 19:10 -12.58144 -39.02690 32992 ft 466 kts 72°
2026-04-27 19:10 -12.56166 -38.96360 32992 ft 467 kts 72°
2026-04-27 19:11 -12.54180 -38.90023 32991 ft 467 kts 72°
2026-04-27 19:11 -12.52190 -38.83686 32987 ft 467 kts 72°
2026-04-27 19:12 -12.50204 -38.77356 32984 ft 467 kts 72°
2026-04-27 19:12 -12.48219 -38.71017 32988 ft 467 kts 72°
2026-04-27 19:13 -12.46230 -38.64689 32989 ft 467 kts 72°
2026-04-27 19:13 -12.44235 -38.58358 32987 ft 467 kts 72°
2026-04-27 19:14 -12.42237 -38.52025 32990 ft 468 kts 72°
2026-04-27 19:14 -12.40245 -38.45704 32992 ft 468 kts 72°
2026-04-27 19:15 -12.38247 -38.39372 32988 ft 468 kts 72°
2026-04-27 19:15 -12.36248 -38.33052 32992 ft 468 kts 72°
2026-04-27 19:16 -12.34243 -38.26721 32992 ft 468 kts 72°
2026-04-27 19:16 -12.32244 -38.20389 32993 ft 468 kts 72°
2026-04-27 19:17 -12.30246 -38.14063 32995 ft 469 kts 72°
2026-04-27 19:17 -12.27409 -38.08104 32991 ft 471 kts 53°
2026-04-27 19:17 -12.25130 -38.05704 32992 ft 471 kts 40°
2026-04-27 19:18 -12.22492 -38.03712 32999 ft 472 kts 36°
2026-04-27 19:18 -12.17113 -37.99878 32994 ft 472 kts 36°
2026-04-27 19:19 -12.11779 -37.96006 32994 ft 470 kts 36°
2026-04-27 19:19 -12.06449 -37.92120 32990 ft 471 kts 36°
2026-04-27 19:20 -12.01114 -37.88235 32994 ft 471 kts 36°
2026-04-27 19:20 -11.95775 -37.84347 32996 ft 471 kts 36°
2026-04-27 19:21 -11.90450 -37.80465 32995 ft 471 kts 36°
2026-04-27 19:21 -11.85094 -37.76575 32991 ft 473 kts 36°
2026-04-27 19:22 -11.79768 -37.72711 32994 ft 473 kts 36°
2026-04-27 19:22 -11.74409 -37.68834 32992 ft 473 kts 36°
2026-04-27 19:23 -11.69045 -37.64951 32990 ft 473 kts 36°
2026-04-27 19:23 -11.63677 -37.61063 32992 ft 473 kts 36°
2026-04-27 19:24 -11.58307 -37.57179 32990 ft 473 kts 37°
2026-04-27 19:24 -11.52935 -37.53289 32988 ft 474 kts 36°
2026-04-27 19:25 -11.47557 -37.49407 32990 ft 473 kts 37°
2026-04-27 19:25 -11.42184 -37.45529 32988 ft 474 kts 36°
2026-04-27 19:26 -11.36801 -37.41637 32994 ft 474 kts 37°
2026-04-27 19:26 -11.31416 -37.37751 32990 ft 474 kts 37°
2026-04-27 19:27 -11.26034 -37.33869 32983 ft 474 kts 36°
2026-04-27 19:27 -11.20655 -37.29986 32982 ft 474 kts 36°
2026-04-27 19:28 -11.15269 -37.26102 32979 ft 474 kts 36°
2026-04-27 19:28 -11.09881 -37.22221 32974 ft 474 kts 36°
2026-04-27 19:29 -11.04485 -37.18337 32965 ft 475 kts 37°
2026-04-27 19:29 -10.99088 -37.14462 32965 ft 475 kts 36°
2026-04-27 19:30 -10.93684 -37.10595 32965 ft 475 kts 36°
2026-04-27 19:30 -10.88283 -37.06723 32965 ft 475 kts 36°
2026-04-27 19:31 -10.82911 -37.02874 32966 ft 465 kts 36°
2026-04-27 19:31 -10.77674 -36.99120 32692 ft 454 kts 36°
2026-04-27 19:31 -10.75093 -36.97274 32065 ft 454 kts 36°
2026-04-27 19:32 -10.72510 -36.95426 31358 ft 454 kts 36°
2026-04-27 19:32 -10.69930 -36.93581 30649 ft 453 kts 36°
2026-04-27 19:32 -10.67353 -36.91734 29937 ft 453 kts 37°
2026-04-27 19:32 -10.64773 -36.89890 29112 ft 454 kts 37°
2026-04-27 19:33 -10.62186 -36.88045 28366 ft 454 kts 37°
2026-04-27 19:33 -10.61315 -36.87424 28132 ft 454 kts 37°
2026-04-27 19:33 -10.57034 -36.84367 27055 ft 451 kts 37°
2026-04-27 19:33 -10.54479 -36.82538 26414 ft 449 kts 37°
2026-04-27 19:34 -10.51932 -36.80711 25782 ft 447 kts 37°
2026-04-27 19:34 -10.49394 -36.78900 25173 ft 445 kts 37°
2026-04-27 19:34 -10.46868 -36.77102 24553 ft 442 kts 37°
2026-04-27 19:34 -10.44362 -36.75316 23926 ft 438 kts 38°
2026-04-27 19:35 -10.41884 -36.73548 23252 ft 434 kts 38°
2026-04-27 19:35 -10.39428 -36.71796 22545 ft 429 kts 38°
2026-04-27 19:35 -10.37000 -36.70066 21873 ft 425 kts 38°
2026-04-27 19:35 -10.34591 -36.68346 21211 ft 420 kts 38°
2026-04-27 19:36 -10.32214 -36.66649 20603 ft 416 kts 38°
2026-04-27 19:36 -10.30657 -36.65535 20211 ft 413 kts 38°
2026-04-27 19:36 -10.28319 -36.63866 19630 ft 408 kts 38°
2026-04-27 19:36 -10.26005 -36.62221 19074 ft 404 kts 37°
2026-04-27 19:37 -10.22954 -36.60044 18366 ft 398 kts 37°
2026-04-27 19:37 -10.21460 -36.58981 17981 ft 395 kts 37°
2026-04-27 19:37 -10.18502 -36.56873 17221 ft 391 kts 37°
2026-04-27 19:37 -10.16273 -36.55285 16669 ft 392 kts 37°
2026-04-27 19:38 -10.14797 -36.54166 16287 ft 391 kts 41°
2026-04-27 19:38 -10.12712 -36.52397 15769 ft 391 kts 42°
2026-04-27 19:38 -10.10644 -36.50613 15269 ft 390 kts 42°
2026-04-27 19:38 -10.08577 -36.48825 14763 ft 390 kts 42°
2026-04-27 19:39 -10.06541 -36.47066 14241 ft 390 kts 42°
2026-04-27 19:39 -10.04474 -36.45282 13707 ft 390 kts 42°
2026-04-27 19:39 -10.02404 -36.43501 12940 ft 389 kts 41°
2026-04-27 19:39 -10.00348 -36.41738 12360 ft 384 kts 41°
2026-04-27 19:40 -9.98329 -36.40000 11834 ft 378 kts 41°
2026-04-27 19:40 -9.96342 -36.38285 11366 ft 371 kts 41°
2026-04-27 19:40 -9.94409 -36.36622 11098 ft 359 kts 41°
2026-04-27 19:40 -9.92540 -36.35014 10901 ft 345 kts 41°
2026-04-27 19:41 -9.90739 -36.33462 10742 ft 333 kts 41°
2026-04-27 19:41 -9.89007 -36.31977 10589 ft 320 kts 41°
2026-04-27 19:41 -9.87335 -36.30546 10456 ft 308 kts 41°
2026-04-27 19:41 -9.85732 -36.29172 10330 ft 296 kts 41°
2026-04-27 19:42 -9.84182 -36.27841 10121 ft 288 kts 41°
2026-04-27 19:42 -9.82655 -36.26530 9741 ft 287 kts 41°
2026-04-27 19:42 -9.81143 -36.25231 9366 ft 284 kts 41°
2026-04-27 19:42 -9.79634 -36.23937 8953 ft 283 kts 41°
2026-04-27 19:43 -9.78130 -36.22643 8529 ft 284 kts 41°
2026-04-27 19:43 -9.76628 -36.21354 8172 ft 282 kts 41°
2026-04-27 19:43 -9.75132 -36.20067 7742 ft 283 kts 41°
2026-04-27 19:43 -9.73633 -36.18781 7362 ft 282 kts 41°
2026-04-27 19:44 -9.72141 -36.17502 7010 ft 280 kts 41°
2026-04-27 19:44 -9.70658 -36.16227 6676 ft 280 kts 41°
2026-04-27 19:44 -9.69166 -36.14948 6345 ft 281 kts 42°
2026-04-27 19:44 -9.67670 -36.13666 6005 ft 282 kts 42°
2026-04-27 19:45 -9.66180 -36.12390 5678 ft 280 kts 41°
2026-04-27 19:45 -9.64703 -36.11125 5362 ft 277 kts 43°
2026-04-27 19:45 -9.63231 -36.09860 5058 ft 277 kts 43°
2026-04-27 19:45 -9.61764 -36.08602 4741 ft 277 kts 42°
2026-04-27 19:46 -9.60296 -36.07346 4424 ft 275 kts 43°
2026-04-27 19:46 -9.58839 -36.06099 4109 ft 273 kts 43°
2026-04-27 19:46 -9.57410 -36.04876 3997 ft 263 kts 42°
2026-04-27 19:46 -9.56032 -36.03739 3974 ft 249 kts 38°
2026-04-27 19:47 -9.54610 -36.02828 3902 ft 236 kts 33°
2026-04-27 19:47 -9.53250 -36.02024 3776 ft 224 kts 33°
2026-04-27 19:47 -9.51920 -36.01239 3493 ft 220 kts 33°
2026-04-27 19:47 -9.50603 -36.00457 3144 ft 219 kts 33°
2026-04-27 19:48 -9.49299 -35.99669 2772 ft 217 kts 37°
2026-04-27 19:48 -9.48192 -35.98721 2557 ft 199 kts 55°
2026-04-27 19:48 -9.47724 -35.97513 2405 ft 176 kts 91°
2026-04-27 19:48 -9.47834 -35.96346 2274 ft 159 kts 105°
2026-04-27 19:49 -9.48069 -35.95273 2076 ft 156 kts 103°
2026-04-27 19:49 -9.48274 -35.94202 2034 ft 155 kts 104°
2026-04-27 19:49 -9.48477 -35.93127 2029 ft 155 kts 103°
2026-04-27 19:49 -9.48676 -35.92059 2030 ft 155 kts 103°
2026-04-27 19:50 -9.48865 -35.91046 2024 ft 140 kts 103°
2026-04-27 19:50 -9.49046 -35.90080 2029 ft 139 kts 103°
2026-04-27 19:50 -9.49224 -35.89120 2018 ft 137 kts 102°
2026-04-27 19:50 -9.49401 -35.88174 1883 ft 137 kts 103°
2026-04-27 19:51 -9.49579 -35.87223 1707 ft 138 kts 103°
2026-04-27 19:51 -9.49757 -35.86266 1524 ft 139 kts 102°
2026-04-27 19:51 -9.49935 -35.85311 1348 ft 135 kts 103°
2026-04-27 19:51 -9.50111 -35.84371 1182 ft 137 kts 104°
2026-04-27 19:52 -9.50288 -35.83423 1019 ft 138 kts 104°
2026-04-27 19:52 -9.50468 -35.82459 858 ft 140 kts 104°
2026-04-27 19:52 -9.50647 -35.81495 668 ft 138 kts 102°
2026-04-27 19:52 -9.50825 -35.80531 474 ft 140 kts 104°
2026-04-27 19:53 -9.51092 -35.79127 404 ft 33 kts 100°
2026-04-27 19:53 -9.51145 -35.78962 403 ft 21 kts 128°
2026-04-27 19:53 -9.51237 -35.78847 406 ft 20 kts 129°
2026-04-27 19:54 -9.51302 -35.78845 406 ft 12 kts 253°
2026-04-27 19:54 -9.51289 -35.78927 406 ft 12 kts 282°
2026-04-27 19:54 -9.51299 -35.79004 403 ft 9 kts 219°
2026-04-27 19:54 -9.51345 -35.79043 406 ft 7 kts 269°
2026-04-27 19:55 -9.51347 -35.79099 406 ft 9 kts 267°
2026-04-27 19:55 -9.51342 -35.79163 406 ft 9 kts 280°
2026-04-27 19:55 -9.51375 -35.79204 406 ft 6 kts 191°
2026-04-27 19:55 -9.51397 -35.79209 406 ft 0 kts 191°